Time,TemperatureF,DewpointF,PressureIn,WindDirection,WindDirectionDegrees,WindSpeedMPH,WindSpeedGustMPH,Humidity,HourlyPrecipIn,Conditions,Clouds,dailyrainin,SoftwareType,DateUTC
2013-03-19 00:03:00,33.0,32.0,-100.00,WSW,255,11.0,19.0,97,-99.99,,,-99.99,,2013-03-19 04:03:00,
2013-03-19 00:13:00,33.0,32.0,-100.00,WSW,250,11.0,28.0,97,-99.99,,,-99.99,,2013-03-19 04:13:00,
2013-03-19 00:23:00,33.0,32.0,-100.00,WSW,250,11.0,28.0,97,-99.99,,,-99.99,,2013-03-19 04:23:00,
2013-03-19 00:34:00,33.0,32.0,-100.00,WSW,240,15.0,23.0,97,-99.99,,,-99.99,,2013-03-19 04:34:00,
2013-03-19 00:43:00,33.0,32.0,-100.00,WSW,255,18.0,31.0,96,-99.99,,,-99.99,,2013-03-19 04:43:00,
2013-03-19 00:52:00,33.0,32.0,-100.00,WSW,255,18.0,31.0,96,-99.99,,,-99.99,,2013-03-19 04:52:00,
2013-03-19 01:02:00,33.0,32.0,-100.00,West,265,21.0,33.0,96,-99.99,,,-99.99,,2013-03-19 05:02:00,
2013-03-19 01:12:00,33.0,32.0,-100.00,SW,230,13.0,27.0,95,-99.99,,,-99.99,,2013-03-19 05:12:00,
2013-03-19 01:22:00,33.0,32.0,-100.00,SW,230,13.0,27.0,95,-99.99,,,-99.99,,2013-03-19 05:22:00,
2013-03-19 01:32:00,34.0,32.0,-100.00,SW,215,11.0,22.0,95,-99.99,,,-99.99,,2013-03-19 05:32:00,
2013-03-19 01:43:00,34.0,33.0,-100.00,SW,235,8.0,20.0,95,-99.99,,,-99.99,,2013-03-19 05:43:00,
2013-03-19 01:52:00,34.0,33.0,-100.00,SW,235,8.0,20.0,95,-99.99,,,-99.99,,2013-03-19 05:52:00,
2013-03-19 02:03:00,34.0,33.0,-100.00,SW,225,12.0,20.0,95,-99.99,,,-99.99,,2013-03-19 06:03:00,
2013-03-19 02:12:00,34.0,33.0,-100.00,SW,220,7.0,17.0,95,-99.99,,,-99.99,,2013-03-19 06:12:00,
2013-03-19 02:22:00,34.0,33.0,-100.00,SW,220,7.0,17.0,95,-99.99,,,-99.99,,2013-03-19 06:22:00,
2013-03-19 02:32:00,35.0,33.0,-100.00,WSW,240,13.0,20.0,95,-99.99,,,-99.99,,2013-03-19 06:32:00,
2013-03-19 02:42:00,35.0,33.0,-100.00,SW,225,9.0,22.0,95,-99.99,,,-99.99,,2013-03-19 06:42:00,
2013-03-19 02:52:00,35.0,33.0,-100.00,SW,225,9.0,22.0,95,-99.99,,,-99.99,,2013-03-19 06:52:00,
2013-03-19 03:03:00,35.0,33.0,-100.00,WSW,240,8.0,12.0,95,-99.99,,,-99.99,,2013-03-19 07:03:00,
2013-03-19 03:12:00,35.0,33.0,-100.00,WSW,245,9.0,17.0,95,-99.99,,,-99.99,,2013-03-19 07:12:00,
2013-03-19 03:22:00,35.0,33.0,-100.00,WSW,245,9.0,17.0,95,-99.99,,,-99.99,,2013-03-19 07:22:00,
2013-03-19 03:32:00,35.0,33.0,-100.00,WSW,240,10.0,19.0,95,-99.99,,,-99.99,,2013-03-19 07:32:00,
2013-03-19 03:42:00,35.0,33.0,-100.00,SW,235,10.0,18.0,95,-99.99,,,-99.99,,2013-03-19 07:42:00,
2013-03-19 03:53:00,35.0,33.0,-100.00,SW,235,10.0,18.0,95,-99.99,,,-99.99,,2013-03-19 07:53:00,
2013-03-19 04:03:00,35.0,33.0,-100.00,SW,235,8.0,18.0,95,-99.99,,,-99.99,,2013-03-19 08:03:00,
2013-03-19 04:13:00,34.0,33.0,-100.00,WSW,245,11.0,19.0,95,-99.99,,,-99.99,,2013-03-19 08:13:00,
2013-03-19 04:22:00,34.0,33.0,-100.00,WSW,245,11.0,19.0,95,-99.99,,,-99.99,,2013-03-19 08:22:00,
2013-03-19 04:42:00,35.0,33.0,-100.00,SW,230,5.0,15.0,94,-99.99,,,-99.99,,2013-03-19 08:42:00,
2013-03-19 04:52:00,35.0,33.0,-100.00,SW,230,5.0,15.0,94,-99.99,,,-99.99,,2013-03-19 08:52:00,
2013-03-19 05:03:00,35.0,33.0,-100.00,SW,225,7.0,12.0,94,-99.99,,,-99.99,,2013-03-19 09:03:00,
2013-03-19 05:12:00,35.0,33.0,-100.00,SW,215,5.0,12.0,94,-99.99,,,-99.99,,2013-03-19 09:12:00,
2013-03-19 05:23:00,35.0,33.0,-100.00,SW,215,5.0,12.0,94,-99.99,,,-99.99,,2013-03-19 09:23:00,
2013-03-19 05:33:00,35.0,33.0,-100.00,SW,215,7.0,11.0,94,-99.99,,,-99.99,,2013-03-19 09:33:00,
2013-03-19 05:43:00,35.0,33.0,-100.00,SW,220,9.0,16.0,94,-99.99,,,-99.99,,2013-03-19 09:43:00,
2013-03-19 05:53:00,35.0,33.0,-100.00,SW,220,9.0,16.0,94,-99.99,,,-99.99,,2013-03-19 09:53:00,
2013-03-19 06:04:00,35.0,33.0,-100.00,SW,215,9.0,17.0,94,-99.99,,,-99.99,,2013-03-19 10:04:00,
2013-03-19 06:13:00,35.0,33.0,-100.00,SW,220,8.0,15.0,94,-99.99,,,-99.99,,2013-03-19 10:13:00,
2013-03-19 06:23:00,35.0,33.0,-100.00,SW,220,8.0,15.0,94,-99.99,,,-99.99,,2013-03-19 10:23:00,
2013-03-19 06:33:00,35.0,33.0,-100.00,SW,220,6.0,16.0,94,-99.99,,,-99.99,,2013-03-19 10:33:00,
2013-03-19 06:42:00,35.0,33.0,-100.00,SW,230,8.0,13.0,94,-99.99,,,-99.99,,2013-03-19 10:42:00,
2013-03-19 06:52:00,35.0,33.0,-100.00,SW,230,8.0,13.0,94,-99.99,,,-99.99,,2013-03-19 10:52:00,
2013-03-19 07:03:00,35.0,34.0,-100.00,South,190,4.0,10.0,94,-99.99,,,-99.99,,2013-03-19 11:03:00,
2013-03-19 07:12:00,35.0,33.0,-100.00,South,175,4.0,7.0,94,-99.99,,,-99.99,,2013-03-19 11:12:00,
2013-03-19 07:22:00,35.0,33.0,-100.00,South,175,4.0,7.0,94,-99.99,,,-99.99,,2013-03-19 11:22:00,
2013-03-19 07:33:00,35.0,33.0,-100.00,South,185,3.0,5.0,94,-99.99,,,-99.99,,2013-03-19 11:33:00,
2013-03-19 07:43:00,35.0,33.0,-100.00,SSW,205,2.0,5.0,94,-99.99,,,-99.99,,2013-03-19 11:43:00,
2013-03-19 07:53:00,35.0,33.0,-100.00,SSW,205,2.0,5.0,94,-99.99,,,-99.99,,2013-03-19 11:53:00,
2013-03-19 08:02:00,35.0,33.0,-100.00,SW,225,4.0,6.0,94,-99.99,,,-99.99,,2013-03-19 12:02:00,
2013-03-19 08:12:00,35.0,34.0,-100.00,SSW,200,5.0,10.0,95,-99.99,,,-99.99,,2013-03-19 12:12:00,
2013-03-19 08:23:00,35.0,34.0,-100.00,SSW,200,5.0,10.0,95,-99.99,,,-99.99,,2013-03-19 12:23:00,
2013-03-19 08:33:00,35.0,34.0,-100.00,SSW,200,5.0,8.0,95,-99.99,,,-99.99,,2013-03-19 12:33:00,
2013-03-19 08:43:00,35.0,34.0,-100.00,SW,220,5.0,8.0,95,-99.99,,,-99.99,,2013-03-19 12:43:00,
2013-03-19 08:52:00,35.0,34.0,-100.00,SW,220,5.0,8.0,95,-99.99,,,-99.99,,2013-03-19 12:52:00,
2013-03-19 09:02:00,35.0,34.0,-100.00,SW,215,6.0,10.0,96,-99.99,,,-99.99,,2013-03-19 13:02:00,
2013-03-19 09:12:00,35.0,34.0,-100.00,SW,215,6.0,10.0,96,-99.99,,,-99.99,,2013-03-19 13:12:00,
2013-03-19 09:33:00,35.0,34.0,-100.00,SSE,155,4.0,8.0,96,-99.99,,,-99.99,,2013-03-19 13:33:00,
2013-03-19 09:42:00,35.0,34.0,-100.00,East,95,4.0,9.0,96,-99.99,,,-99.99,,2013-03-19 13:42:00,
2013-03-19 09:52:00,35.0,34.0,-100.00,East,95,4.0,9.0,96,-99.99,,,-99.99,,2013-03-19 13:52:00,
2013-03-19 10:12:00,35.0,34.0,-100.00,East,80,6.0,12.0,96,-99.99,,,-99.99,,2013-03-19 14:12:00,
2013-03-19 10:22:00,35.0,34.0,-100.00,East,80,6.0,12.0,96,-99.99,,,-99.99,,2013-03-19 14:22:00,
2013-03-19 10:32:00,35.0,34.0,-100.00,ESE,120,5.0,10.0,96,-99.99,,,-99.99,,2013-03-19 14:32:00,
2013-03-19 10:42:00,35.0,34.0,-100.00,ESE,120,5.0,10.0,96,-99.99,,,-99.99,,2013-03-19 14:42:00,
2013-03-19 11:03:00,34.0,33.0,-100.00,East,85,3.0,7.0,96,-99.99,,,-99.99,,2013-03-19 15:03:00,
2013-03-19 11:12:00,34.0,33.0,-100.00,NNE,15,4.0,5.0,96,-99.99,,,-99.99,,2013-03-19 15:12:00,
2013-03-19 11:23:00,34.0,33.0,-100.00,NNE,15,4.0,5.0,96,-99.99,,,-99.99,,2013-03-19 15:23:00,
2013-03-19 11:34:00,34.0,33.0,-100.00,NNE,15,3.0,5.0,96,-99.99,,,-99.99,,2013-03-19 15:34:00,
2013-03-19 11:44:00,34.0,33.0,-100.00,NNE,15,2.0,4.0,96,-99.99,,,-99.99,,2013-03-19 15:44:00,
2013-03-19 11:53:00,34.0,33.0,-100.00,NNE,15,2.0,4.0,96,-99.99,,,-99.99,,2013-03-19 15:53:00,
2013-03-19 12:04:00,35.0,34.0,-100.00,NNE,30,3.0,5.0,96,-99.99,,,-99.99,,2013-03-19 16:04:00,
2013-03-19 12:13:00,36.0,35.0,-100.00,East,90,4.0,8.0,96,-99.99,,,-99.99,,2013-03-19 16:13:00,
2013-03-19 12:24:00,36.0,35.0,-100.00,East,90,4.0,8.0,96,-99.99,,,-99.99,,2013-03-19 16:24:00,
2013-03-19 12:34:00,35.0,34.0,-100.00,NE,45,6.0,8.0,96,-99.99,,,-99.99,,2013-03-19 16:34:00,
2013-03-19 12:44:00,36.0,35.0,-100.00,NE,35,3.0,9.0,96,-99.99,,,-99.99,,2013-03-19 16:44:00,
2013-03-19 12:54:00,36.0,35.0,-100.00,NE,35,3.0,9.0,96,-99.99,,,-99.99,,2013-03-19 16:54:00,
2013-03-19 13:03:00,37.0,36.0,-100.00,NE,55,2.0,9.0,96,-99.99,,,-99.99,,2013-03-19 17:03:00,
2013-03-19 13:14:00,37.0,36.0,-100.00,NE,40,2.0,7.0,95,-99.99,,,-99.99,,2013-03-19 17:14:00,
2013-03-19 13:24:00,37.0,36.0,-100.00,NE,40,2.0,7.0,95,-99.99,,,-99.99,,2013-03-19 17:24:00,
2013-03-19 13:34:00,38.0,37.0,-100.00,ENE,70,3.0,6.0,94,-99.99,,,-99.99,,2013-03-19 17:34:00,
2013-03-19 13:44:00,40.0,38.0,-100.00,East,95,3.0,7.0,91,-99.99,,,-99.99,,2013-03-19 17:44:00,
2013-03-19 13:53:00,40.0,38.0,-100.00,East,95,3.0,7.0,91,-99.99,,,-99.99,,2013-03-19 17:53:00,
2013-03-19 14:03:00,42.0,38.0,-100.00,East,80,2.0,8.0,86,-99.99,,,-99.99,,2013-03-19 18:03:00,
2013-03-19 14:14:00,42.0,36.0,-100.00,South,190,0.0,7.0,80,-99.99,,,-99.99,,2013-03-19 18:14:00,
2013-03-19 14:23:00,42.0,36.0,-100.00,South,190,0.0,7.0,80,-99.99,,,-99.99,,2013-03-19 18:23:00,
2013-03-19 14:34:00,43.0,37.0,-100.00,SW,235,1.0,6.0,78,-99.99,,,-99.99,,2013-03-19 18:34:00,
2013-03-19 14:43:00,45.0,37.0,-100.00,East,90,7.0,12.0,74,-99.99,,,-99.99,,2013-03-19 18:43:00,
2013-03-19 14:53:00,45.0,37.0,-100.00,East,90,7.0,12.0,74,-99.99,,,-99.99,,2013-03-19 18:53:00,
2013-03-19 15:03:00,44.0,36.0,-100.00,ESE,115,5.0,12.0,73,-99.99,,,-99.99,,2013-03-19 19:03:00,
2013-03-19 15:12:00,43.0,34.0,-100.00,NE,50,5.0,9.0,70,-99.99,,,-99.99,,2013-03-19 19:12:00,
2013-03-19 15:23:00,43.0,34.0,-100.00,NE,50,5.0,9.0,70,-99.99,,,-99.99,,2013-03-19 19:23:00,
2013-03-19 15:33:00,45.0,35.0,-100.00,East,85,5.0,9.0,68,-99.99,,,-99.99,,2013-03-19 19:33:00,
2013-03-19 15:43:00,45.0,35.0,-100.00,ENE,60,7.0,11.0,67,-99.99,,,-99.99,,2013-03-19 19:43:00,
2013-03-19 15:52:00,45.0,35.0,-100.00,ENE,60,7.0,11.0,67,-99.99,,,-99.99,,2013-03-19 19:52:00,
2013-03-19 16:12:00,45.0,33.0,-100.00,NE,40,7.0,13.0,62,-99.99,,,-99.99,,2013-03-19 20:12:00,
2013-03-19 16:23:00,45.0,33.0,-100.00,NE,40,7.0,13.0,62,-99.99,,,-99.99,,2013-03-19 20:23:00,
2013-03-19 16:33:00,46.0,33.0,-100.00,NE,50,9.0,11.0,60,-99.99,,,-99.99,,2013-03-19 20:33:00,
2013-03-19 16:43:00,47.0,32.0,-100.00,ENE,65,7.0,13.0,56,-99.99,,,-99.99,,2013-03-19 20:43:00,
2013-03-19 16:52:00,47.0,32.0,-100.00,ENE,65,7.0,13.0,56,-99.99,,,-99.99,,2013-03-19 20:52:00,
2013-03-19 17:02:00,48.0,31.0,-100.00,ENE,70,7.0,13.0,53,-99.99,,,-99.99,,2013-03-19 21:02:00,
2013-03-19 17:12:00,48.0,31.0,-100.00,NNE,15,5.0,7.0,53,-99.99,,,-99.99,,2013-03-19 21:12:00,
2013-03-19 17:23:00,48.0,31.0,-100.00,NNE,15,5.0,7.0,53,-99.99,,,-99.99,,2013-03-19 21:23:00,
2013-03-19 17:34:00,49.0,30.0,-100.00,NE,45,5.0,13.0,48,-99.99,,,-99.99,,2013-03-19 21:34:00,
2013-03-19 17:43:00,50.0,27.0,-100.00,East,85,8.0,16.0,40,-99.99,,,-99.99,,2013-03-19 21:43:00,
2013-03-19 17:53:00,50.0,27.0,-100.00,East,85,8.0,16.0,40,-99.99,,,-99.99,,2013-03-19 21:53:00,
2013-03-19 18:03:00,50.0,26.0,-100.00,East,90,11.0,15.0,39,-99.99,,,-99.99,,2013-03-19 22:03:00,
2013-03-19 18:13:00,49.0,24.0,-100.00,NE,45,8.0,17.0,37,-99.99,,,-99.99,,2013-03-19 22:13:00,
2013-03-19 18:24:00,49.0,24.0,-100.00,NE,45,8.0,17.0,37,-99.99,,,-99.99,,2013-03-19 22:24:00,
2013-03-19 18:33:00,49.0,24.0,-100.00,NE,35,11.0,18.0,37,-99.99,,,-99.99,,2013-03-19 22:33:00,
2013-03-19 18:43:00,48.0,23.0,-100.00,NE,50,12.0,21.0,38,-99.99,,,-99.99,,2013-03-19 22:43:00,
2013-03-19 18:53:00,48.0,23.0,-100.00,NE,50,12.0,21.0,38,-99.99,,,-99.99,,2013-03-19 22:53:00,
2013-03-19 19:03:00,48.0,25.0,-100.00,NNE,25,8.0,17.0,40,-99.99,,,-99.99,,2013-03-19 23:03:00,
2013-03-19 19:12:00,47.0,24.0,-100.00,NE,45,10.0,22.0,40,-99.99,,,-99.99,,2013-03-19 23:12:00,
2013-03-19 19:22:00,47.0,24.0,-100.00,NE,45,10.0,22.0,40,-99.99,,,-99.99,,2013-03-19 23:22:00,
2013-03-19 19:33:00,47.0,25.0,-100.00,NE,40,5.0,13.0,42,-99.99,,,-99.99,,2013-03-19 23:33:00,
2013-03-19 19:43:00,46.0,26.0,-100.00,ESE,105,4.0,12.0,45,-99.99,,,-99.99,,2013-03-19 23:43:00,
2013-03-19 19:52:00,46.0,26.0,-100.00,ESE,105,4.0,12.0,45,-99.99,,,-99.99,,2013-03-19 23:52:00,
2013-03-19 20:03:00,44.0,26.0,-100.00,NNE,25,3.0,9.0,49,-99.99,,,-99.99,,2013-03-20 00:03:00,
2013-03-19 20:13:00,42.0,27.0,-100.00,North,10,2.0,5.0,53,-99.99,,,-99.99,,2013-03-20 00:13:00,
2013-03-19 20:22:00,42.0,27.0,-100.00,North,10,2.0,5.0,53,-99.99,,,-99.99,,2013-03-20 00:22:00,
2013-03-19 20:33:00,42.0,27.0,-100.00,East,95,3.0,7.0,57,-99.99,,,-99.99,,2013-03-20 00:33:00,
2013-03-19 20:42:00,43.0,28.0,-100.00,ESE,110,2.0,6.0,55,-99.99,,,-99.99,,2013-03-20 00:42:00,
2013-03-19 20:52:00,43.0,28.0,-100.00,ESE,110,2.0,6.0,55,-99.99,,,-99.99,,2013-03-20 00:52:00,
2013-03-19 21:03:00,42.0,28.0,-100.00,ENE,65,4.0,9.0,58,-99.99,,,-99.99,,2013-03-20 01:03:00,
2013-03-19 21:12:00,43.0,24.0,-100.00,East,90,12.0,26.0,47,-99.99,,,-99.99,,2013-03-20 01:12:00,
2013-03-19 21:23:00,43.0,24.0,-100.00,East,90,12.0,26.0,47,-99.99,,,-99.99,,2013-03-20 01:23:00,
2013-03-19 21:32:00,44.0,19.0,-100.00,East,80,15.0,26.0,37,-99.99,,,-99.99,,2013-03-20 01:32:00,
2013-03-19 21:43:00,42.0,19.0,-100.00,East,95,24.0,31.0,39,-99.99,,,-99.99,,2013-03-20 01:43:00,
2013-03-19 21:52:00,42.0,19.0,-100.00,East,95,24.0,31.0,39,-99.99,,,-99.99,,2013-03-20 01:52:00,
2013-03-19 22:03:00,41.0,19.0,-100.00,East,80,10.0,27.0,40,-99.99,,,-99.99,,2013-03-20 02:03:00,
2013-03-19 22:12:00,41.0,19.0,-100.00,East,100,19.0,25.0,41,-99.99,,,-99.99,,2013-03-20 02:12:00,
2013-03-19 22:23:00,41.0,19.0,-100.00,East,100,19.0,25.0,41,-99.99,,,-99.99,,2013-03-20 02:23:00,
2013-03-19 22:32:00,40.0,19.0,-100.00,East,90,16.0,25.0,42,-99.99,,,-99.99,,2013-03-20 02:32:00,
2013-03-19 22:43:00,39.0,18.0,-100.00,East,90,8.0,21.0,42,-99.99,,,-99.99,,2013-03-20 02:43:00,
2013-03-19 22:52:00,39.0,18.0,-100.00,East,90,8.0,21.0,42,-99.99,,,-99.99,,2013-03-20 02:52:00,
2013-03-19 23:02:00,39.0,16.0,-100.00,East,95,23.0,39.0,40,-99.99,,,-99.99,,2013-03-20 03:02:00,
2013-03-19 23:12:00,38.0,14.0,-100.00,East,85,22.0,32.0,37,-99.99,,,-99.99,,2013-03-20 03:12:00,
2013-03-19 23:22:00,38.0,14.0,-100.00,East,85,22.0,32.0,37,-99.99,,,-99.99,,2013-03-20 03:22:00,
2013-03-19 23:34:00,37.0,14.0,-100.00,ENE,75,10.0,33.0,38,-99.99,,,-99.99,,2013-03-20 03:34:00,
2013-03-19 23:43:00,37.0,15.0,-100.00,East,90,11.0,25.0,40,-99.99,,,-99.99,,2013-03-20 03:43:00,
2013-03-19 23:53:00,37.0,15.0,-100.00,East,90,11.0,25.0,40,-99.99,,,-99.99,,2013-03-20 03:53:00,